Regional Weather Roundup
Issued by NWS Newport/Morehead, NC

Current Version | Previous Version | Graphics & Text | Print | Product List | Glossary On
Versions: 1 2 3 4 5 6 7 8 9 10 11 12 13 14 15 16 17 18 19 20 21 22 23 24 25 26 27 28 29 30 31 32 33 34 35 36 37 38 39 40 41 42 43 44 45 46 47 48 49 50
000 ASUS42 KMHX 231622 RWRMHX WEATHER ROUNDUP FOR EASTERN NORTH CAROLINA NATIONAL WEATHER SERVICE NEWPORT/MOREHEAD CITY NC 1100 AM EST SUN NOV 23 2014 NOTE: "FAIR" INDICATES FEW OR NO CLOUDS BELOW 12,000 FEET WITH NO SIGNIFICANT WEATHER AND/OR OBSTRUCTIONS TO VISIBILITY NCZ015>017-031-032-045>047-102-103-231700- NORTH COAST CITY SKY/WX TMP DP RH WIND PRES REMARKS EDENTON CLOUDY 56 47 71 SE5 30.25F ELIZABETH CITY CLOUDY 56 46 69 CALM 30.27R KITTY HAWK CLOUDY 61 51 69 SE3 30.26R MANTEO CLOUDY 62 50 65 SE5 30.28R $$ NCZ045>047-081-094-103-104-231700- CENTRAL COAST CITY SKY/WX TMP DP RH WIND PRES REMARKS FRISCO CLOUDY 63 57 81 S10 30.25F SWANQUARTER N/A 59 N/A N/A NE2 30.21F $$ NCZ095-097-098-100-101-231700- SOUTHERN COAST CITY SKY/WX TMP DP RH WIND PRES REMARKS BEAUFORT LGT RAIN 64 56 75 SE8 30.23F CEDAR ISLAND N/A 63 N/A N/A SE8 30.27F JACKSONVILLE LGT RAIN 53 51 93 N6 30.22F PINEY ISLAND LGT RAIN 64 57 78 CALM 30.25S WILMINGTON LGT RAIN 60 59 96 E6 30.19F $$ NCZ011>013-027>030-043-044-078>080-089-090>093-098-231700- COASTAL PLAIN CITY SKY/WX TMP DP RH WIND PRES REMARKS AHOSKIE N/A 50 41 70 S3 30.25F CLINTON LGT RAIN 50 49 97 CALM 30.21F ELIZABETHTOWN LGT RAIN 51 51 100 E3 30.17F GOLDSBORO CLOUDY 50 50 100 E2 30.19F GREENVILLE LGT RAIN 54 43 66 CALM 30.23F HAVELOCK LGT RAIN 59 54 83 N3 30.25F KENANSVILLE LGT RAIN 51 49 94 CALM 30.21F KINSTON LGT RAIN 52 46 82 E3 30.22F NEW BERN LGT RAIN 56 49 77 NE3 30.26F RICHLANDS CLOUDY 54 48 82 NE7 30.21F ROCKY MOUNT CLOUDY 49 38 65 SE5 30.25F WASHINGTON CLOUDY 54 46 74 E3 30.24F WHITEVILLE LGT RAIN 57 55 94 E6 30.16F $$ AMZ130-135-150-152-154-156-158-170-250-252-270-ANZ085-086-088-633-658-670-231700- MARINE OBSERVATIONS STATION/POSITION TIME TEMP WIND PRES WAVE SWELL AIR SEA DIR/SP/G HT/PER HT/PER (UTC) (F) (DEG/KT/KT) (MB) (FT/S) (FT/S) CHESAPEAKE LIGHT 1600 54 150/ 7/ 8 1025.2 64 E VA BEACH 1600 65 65 190/ 8/ 10 1024.7 2/ 8 2/ 8 DUCK 1600 60 55 160/ 7/ 8 1024.2 2 E DUCK 1600 56 N/A 1/ 8 10 NE DUCK 1600 58 N/A 2/ 8 OREGON INLET 1600 62 50 120/ 4/ 6 1025.0 13E OREGON INLT 1600 62 N/A 2/ 8 HATTERAS CG 1600 65 52 160/ 9/ 12 1024.6 DIAMOND BUOY 1600 70 160/ 12/ 14 1024.8 3/ 9 2/ 9 17 S OCRACOKE NOT AVBL CAPE LOOKOUT 1600 63 160/ 8/ 8 1023.5 BEAUFORT LAB 1600 62 54 140/ 6/ 7 1022.6 30 SE NEW RIVER 1600 69 69 160/ 17/ 21 1022.6 3/ 9 2/ 9 5 SE WRIGHTSVLE 1600 58 60 130/ 6/ 8 1022.1 225 S CAPE HAT 1543 72 73 140/ 16/ 19 1024.4 5/ 5 2/ 8 41 SE CHARLESTON 1600 69 75 100/ 21/ 25 1018.4 9/ 7 2/15 $$

USA.gov is the U.S. government's official web portal to all federal, state and local government web resources and services.